Tracking 19242 objects as of 17-Aug-2018
HD Live streaming from Space Station
objects crossing your sky now

LEASAT 1

Track LEASAT 1 now!
LEASAT 1 is classified as:


NORAD ID: 15384
Int'l Code: 1984-113C
Perigee: 36,154.8 km
Apogee: 36,414.8 km
Inclination: 13.8 °
Period: 1,461.3 minutes
Semi major axis: 42655 km
RCS: 16.1907 m2 (large)
Launch date: November 8, 1984
Source: United States (US)
Launch site: AIR FORCE EASTERN TEST RANGE (AFETR)
aabbcc
Your satellite tracking list
Your tracking list is empty




NASA's NSSDC Master Catalog

Two Line Element Set (TLE):
1 15384U 84113C   18227.52648931 -.00000140 +00000-0 +00000-0 0  9992
2 15384 013.8269 357.5960 0030473 232.6229 121.7783 00.98545314095709
Source of the keplerian elements: AFSPC